DM8MH-13 Weather Reports


Display with metric or nautical units.
time (UTC)temp
F
wind
direction
speed
MPH
gust
MPH
rain 1hr
in
rain 24hr
in
rain mn
in
humidity
%
barometer
mb
20260506145111 65 61 1.0 7.0 0.00 0.67 0.54 77 1003.7
20260506144110 65 345 5.0 9.0 0.00 0.67 0.54 77 1003.8
20260506143112 65 5 5.0 10.0 0.00 0.67 0.54 78 1003.8
20260506142111 65 22 5.0 11.0 0.00 0.67 0.54 77 1003.7
20260506141111 69 36 4.0 10.0 0.00 0.67 0.54 71 1003.9
20260506140111 70 341 4.0 8.0 0.00 0.67 0.54 64 1004.0
20260506135111 72 9 0.0 6.0 0.00 0.67 0.54 60 1004.0
20260506134112 71 219 3.0 4.0 0.00 0.67 0.54 60 1004.2
20260506133111 71 292 1.0 4.0 0.00 0.67 0.54 65 1004.2
20260506132111 69 281 0.0 0.0 0.00 0.67 0.54 65 1004.2
20260506131110 68 157 1.0 5.0 0.00 0.67 0.54 66 1004.3
20260506130111 68 219 0.0 0.0 0.00 0.67 0.54 70 1004.4
20260506125111 67 271 0.0 2.0 0.00 0.67 0.54 70 1004.3
20260506124111 67 248 3.0 6.0 0.00 0.67 0.54 69 1004.4
20260506123111 66 196 2.0 7.0 0.00 0.67 0.54 70 1004.3
20260506122112 66 267 3.0 8.0 0.00 0.67 0.54 72 1004.2
20260506121110 67 196 1.0 6.0 0.00 0.67 0.54 72 1004.3
20260506120111 67 205 2.0 6.0 0.00 0.67 0.54 71 1004.2
20260506115111 67 262 1.0 5.0 0.00 0.67 0.54 73 1004.2
20260506114111 66 45 0.0 0.0 0.00 0.67 0.54 76 1004.1
20260506113112 65 288 0.0 0.0 0.00 0.67 0.54 78 1004.2
20260506112111 65 271 0.0 0.0 0.00 0.67 0.54 77 1004.2
20260506111111 64 288 0.0 0.0 0.00 0.67 0.54 80 1004.4
20260506110110 64 256 0.0 0.0 0.00 0.67 0.54 80 1004.5
20260506105111 63 251 0.0 0.0 0.00 0.67 0.54 79 1004.5
20260506104110 63 250 0.0 0.0 0.00 0.67 0.54 80 1004.6
20260506103111 63 251 0.0 0.0 0.00 0.67 0.54 81 1004.6
20260506102111 62 250 0.0 0.0 0.00 0.67 0.54 81 1004.6
20260506101110 62 252 0.0 0.0 0.00 0.67 0.54 83 1004.5
20260506100111 61 252 0.0 0.0 0.00 0.67 0.54 84 1004.5
20260506095111 60 250 1.0 3.0 0.00 0.67 0.54 86 1004.3
20260506094111 60 278 1.0 2.0 0.00 0.67 0.54 86 1004.3
20260506093111 59 277 1.0 4.0 0.00 0.67 0.54 89 1004.2
20260506092111 59 75 0.0 0.0 0.00 0.67 0.54 91 1004.3
20260506091110 58 76 0.0 2.0 0.00 0.67 0.54 92 1004.2
20260506090111 57 40 2.0 4.0 0.00 0.67 0.54 92 1004.2
20260506085111 56 41 0.0 0.0 0.00 0.67 0.54 92 1004.1
20260506084111 55 41 0.0 0.0 0.00 0.67 0.54 92 1004.2
20260506083111 55 38 0.0 0.0 0.00 0.67 0.54 92 1004.2
20260506082110 55 37 0.0 0.0 0.00 0.67 0.54 92 1004.1
20260506081110 55 36 0.0 0.0 0.00 0.67 0.54 92 1004.0
20260506080110 55 34 0.0 0.0 0.00 0.67 0.54 92 1004.0
20260506073111 55 33 0.0 0.0 0.01 0.67 0.54 91 1004.0
20260506072111 55 32 0.0 0.0 0.01 0.67 0.54 91 1004.0
20260506071110 55 33 0.0 0.0 0.01 0.67 0.54 92 1004.0
20260506070111 55 24 1.0 2.0 0.01 0.67 0.54 92 1004.1
20260506062111 54 261 0.0 0.0 0.00 0.66 0.53 92 1004.1
20260506061110 55 260 0.0 0.0 0.00 0.66 0.53 93 1004.1
20260506060110 54 260 0.0 0.0 0.00 0.66 0.53 93 1004.1
20260506051111 54 259 0.0 3.0 0.00 0.66 0.53 93 1003.8
20260506050110 54 258 1.0 3.0 0.00 0.66 0.53 93 1003.8
20260506045111 54 254 0.0 3.0 0.00 0.66 0.53 93 1003.9
20260506044111 54 253 0.0 0.0 0.00 0.66 0.53 93 1003.9
20260506043111 53 253 0.0 0.0 0.00 0.66 0.53 93 1003.9
20260506042111 53 253 0.0 2.0 0.00 0.66 0.53 93 1003.9
20260506041111 53 253 0.0 3.0 0.00 0.66 0.53 93 1003.9
20260506040110 53 264 2.0 3.0 0.00 0.66 0.53 93 1003.7
20260506035111 53 284 0.0 0.0 0.01 0.68 0.53 93 1003.6
20260506034111 53 284 0.0 0.0 0.02 0.68 0.53 93 1003.6
20260506033111 53 284 0.0 0.0 0.02 0.68 0.53 93 1003.7
20260506032111 53 283 0.0 0.0 0.03 0.68 0.53 93 1003.7
20260506031111 53 284 0.0 0.0 0.04 0.68 0.53 93 1003.8
20260506030111 53 284 0.0 3.0 0.04 0.68 0.53 93 1003.9
20260506025110 53 284 1.0 4.0 0.04 0.67 0.52 93 1003.9
20260506024111 53 270 1.0 3.0 0.04 0.66 0.51 93 1003.9
20260506023111 53 340 2.0 4.0 0.04 0.65 0.50 92 1004.1
20260506022111 54 348 1.0 4.0 0.04 0.65 0.50 92 1004.0
20260506021110 54 299 1.0 6.0 0.04 0.64 0.49 92 1004.1
20260506020110 54 337 3.0 8.0 0.05 0.64 0.49 93 1004.0
20260506015110 54 305 2.0 4.0 0.06 0.63 0.48 93 1004.2
20260506014110 54 322 0.0 0.0 0.08 0.62 0.47 92 1004.4
20260506013110 54 322 0.0 0.0 0.10 0.61 0.46 92 1004.4
20260506012110 54 329 0.0 0.0 0.18 0.61 0.46 92 1004.5
20260506011110 54 329 0.0 4.0 0.24 0.60 0.45 92 1004.5
20260506010110 54 296 2.0 5.0 0.24 0.59 0.44 92 1004.4
20260506005111 54 297 0.0 4.0 0.24 0.57 0.43 92 1004.4
20260506004110 55 290 2.0 6.0 0.24 0.54 0.39 92 1004.4
20260506003111 55 313 3.0 7.0 0.22 0.51 0.36 92 1004.4
20260506002111 55 314 2.0 6.0 0.15 0.43 0.28 92 1004.5
20260506001110 55 290 4.0 8.0 0.10 0.36 0.21 92 1004.5
20260506000110 56 321 3.0 6.0 0.10 0.35 0.20 92 1004.5
20260505235110 56 344 1.0 8.0 0.11 0.33 0.18 92 1004.7
20260505234110 56 313 0.0 3.0 0.11 0.31 0.16 92 1004.7
20260505233111 56 355 1.0 4.0 0.11 0.29 0.14 92 1004.8
20260505232110 56 302 2.0 7.0 0.11 0.28 0.13 92 1004.7
20260505231110 56 360 1.0 6.0 0.10 0.26 0.11 92 1004.8
20260505230110 56 331 2.0 8.0 0.09 0.24 0.09 92 1004.8
20260505225111 56 313 1.0 4.0 0.08 0.22 0.07 92 1004.8
20260505224110 57 348 1.0 4.0 0.07 0.20 0.05 92 1004.9
20260505223110 57 18 2.0 6.0 0.07 0.18 0.03 92 1005.0
20260505222110 57 22 1.0 6.0 0.06 0.17 0.02 91 1005.1
20260505221110 57 322 2.0 5.0 0.07 0.16 0.01 91 1005.1
20260505220110 58 355 1.0 4.0 0.08 0.16 0.01 91 1005.2
20260505215110 58 342 1.0 4.0 0.08 0.14 0.14 91 1005.4
20260505214111 58 341 3.0 7.0 0.07 0.13 0.13 91 1005.4
20260505213111 58 360 2.0 7.0 0.06 0.11 0.11 91 1005.4
20260505212110 58 46 3.0 7.0 0.06 0.10 0.10 91 1005.4
20260505211110 58 26 4.0 7.0 0.06 0.09 0.09 90 1005.5
20260505210121 59 321 2.0 5.0 0.06 0.08 0.08 90 1005.6
20260505205110 59 17 0.0 2.0 0.04 0.06 0.06 89 1005.7
20260505204109 59 15 0.0 2.0 0.03 0.06 0.06 89 1005.7
20260505203110 59 15 1.0 3.0 0.02 0.05 0.05 89 1005.7
20260505202110 59 10 0.0 2.0 0.02 0.03 0.03 89 1005.7
20260505201110 59 57 0.0 3.0 0.02 0.03 0.03 88 1005.6
20260505200111 59 134 0.0 2.0 0.01 0.02 0.02 88 1005.4
20260505195111 59 30 1.0 6.0 0.01 0.03 0.02 88 1005.3
20260505194111 60 340 2.0 5.0 0.01 0.03 0.02 87 1005.2
20260505193111 60 24 1.0 6.0 0.01 0.03 0.02 87 1005.3
20260505192111 60 355 2.0 5.0 0.00 0.02 0.02 86 1005.1
20260505191110 60 344 2.0 8.0 0.00 0.02 0.02 85 1005.1
20260505190110 61 13 3.0 8.0 0.00 0.02 0.02 84 1005.2
20260505185110 61 360 3.0 8.0 0.00 0.02 0.02 84 1005.2
20260505184110 61 30 5.0 10.0 0.00 0.02 0.02 83 1005.3
20260505183111 62 9 4.0 10.0 0.00 0.02 0.02 82 1005.4
20260505182110 62 50 4.0 12.0 0.00 0.02 0.02 82 1005.3
20260505181109 62 50 4.0 7.0 0.00 0.02 0.02 82 1005.4
20260505180109 63 5 4.0 12.0 0.00 0.02 0.02 81 1005.5
20260505175110 63 21 3.0 9.0 0.00 0.02 0.02 80 1005.5
20260505174111 64 360 5.0 10.0 0.00 0.02 0.02 78 1005.5
20260505173110 65 344 4.0 9.0 0.00 0.02 0.02 77 1005.7
20260505172110 65 342 2.0 8.0 0.00 0.02 0.02 74 1005.8
20260505171110 65 71 3.0 9.0 0.00 0.02 0.02 73 1005.6
20260505170109 66 53 5.0 9.0 0.00 0.02 0.02 73 1005.6
20260505165110 66 59 3.0 7.0 0.00 0.02 0.02 72 1005.7
20260505164110 66 11 5.0 9.0 0.00 0.02 0.02 70 1005.6
20260505163110 66 18 3.0 9.0 0.00 0.02 0.02 70 1005.8
20260505162110 67 67 5.0 10.0 0.00 0.02 0.02 70 1005.8
20260505161110 67 52 4.0 8.0 0.00 0.02 0.02 69 1005.8
20260505160110 68 28 0.0 5.0 0.00 0.02 0.02 69 1005.9
20260505153118 68 50 4.0 10.0 0.00 0.02 0.02 68 1006.0
20260505152112 68 32 4.0 8.0 0.00 0.02 0.02 68 1006.1
20260505151112 69 46 2.0 8.0 0.00 0.02 0.02 67 1006.1
20260505150112 69 157 3.0 8.0 0.00 0.02 0.02 68 1006.2